Home > Weather > Viña del Mar > Past weeks

Flag for Chile Past Weather in Viña del Mar, Chile — Yesterday and Last 2 Weeks

Now
48 °F

Passing clouds.


Feels Like: 47 °F
Forecast: 54 / 58 °F
Wind: 3 mph from Southeast

Location: Pudahuel

Current Time: Jul 27, 2016 at 3:53:09 AM

Latest Report: Jul 27, 2016 at 3:00 AM


Visibility: 5 mi

Pressure: 29.98 "Hg

Humidity: 82%

Dew Point: 43 °F

Location of Viña del MarLocation

Past Weather in Viña del Mar — Graph

°F

Viña del Mar Temperature Yesterday

Maximum temperature yesterday: 61 °F (at 4:00 PM)
Minimum temperature yesterday: 39 °F (at 12:00 AM)
Average temperature yesterday: 47 °F

High & Low Weather Summary for the Past Weeks

 TemperatureHumidityPressure
High72 °F (Jul 21, 3:00 PM)100% (Jul 15, 9:00 AM)30.33 "Hg (Jul 15, 9:00 AM)
Low34 °F (Jul 15, 6:00 AM)30% (Jul 18, 4:00 PM)29.80 "Hg (Jul 13, 8:00 AM)
Average49 °F77%30.08 "Hg
* Reported Jul 12 3:00 AM — Jul 27 3:00 AM, Viña del Mar, Weather by CustomWeather, © 2016

Note: Actual official high and low records may vary slightly from our data, if they occured in-between our weather recording intervals... More about our weather records

Advertising

Viña del Mar Weather History for the Previous 24 Hours

Scroll right to see more
 ConditionsComfort  
Time TempWeatherWind HumidityBarometerVisibility
3:00 AM
Wed, Jul 27
48 °FPassing clouds.3 mph82%29.98 "Hg5 mi
2:00 AM46 °FPassing clouds.2 mph87%29.98 "Hg5 mi
1:00 AM48 °FPassing clouds.3 mph82%29.95 "Hg5 mi
12:00 AM48 °FPassing clouds.No wind82%29.95 "Hg5 mi
11:00 PM
Tue, Jul 26
48 °FPassing clouds.2 mph82%29.98 "Hg5 mi
10:00 PM52 °FPassing clouds.2 mph72%29.98 "HgN/A
9:00 PM50 °FPassing clouds.2 mph76%29.98 "HgN/A
8:00 PM52 °FPartly cloudy.No wind72%30.01 "HgN/A
7:00 PM54 °FPassing clouds.2 mph67%30.01 "HgN/A
6:00 PM57 °FClear.3 mph55%30.04 "Hg10 mi
5:00 PM59 °FSunny.3 mph48%30.04 "Hg10 mi
4:00 PM61 °FPassing clouds.3 mph42%30.04 "HgN/A
3:00 PM59 °FSunny.2 mph45%30.07 "Hg10 mi
2:00 PM54 °FClear.2 mph67%30.07 "Hg4 mi
1:00 PM48 °FScattered clouds.3 mph82%30.09 "Hg3 mi
12:00 PM45 °FPartly sunny.3 mph93%30.15 "Hg2 mi
11:00 AM43 °FQuite cool.3 mph93%30.15 "Hg1 mi
10:00 AM43 °FQuite cool.2 mph93%30.18 "Hg1 mi
9:00 AM41 °FQuite cool.5 mph93%30.18 "Hg1 mi
8:00 AM41 °FFog.2 mph93%30.18 "Hg1 mi
7:00 AM41 °FFog.3 mph93%30.18 "Hg0 mi
6:00 AM41 °FFog.5 mph93%30.18 "Hg1 mi
5:00 AM43 °FFog.2 mph93%30.21 "Hg1 mi
4:00 AM41 °FFog.2 mph93%30.21 "Hg1 mi
3:00 AM39 °FFog.5 mph100%30.21 "Hg1 mi
Weather by CustomWeather, © 2016

See weather overviewHow to use our weather pages